Location: Unspecified
(44.1294°N, 0.0000°E)
Time: 00:43:20
(UTC+00:00)

COSMOS 1249 COOLANT - Visible Passes

Search period start: 04 April 2026 00:00
Search period end: 14 April 2026 00:00
Orbit: 874 x 970 km, 65.0° (Epoch: 25 March)

Date Brightness Start Highest point End Pass type
(mag) Time Alt. Az. Time Alt. Az. Time Alt. Az.
4 Apr ? 01:38:03 10° NW 01:40:49 13° NNW 01:43:36 10° N visible
4 Apr ? 03:28:15 10° N 03:30:32 12° NNE 03:32:49 10° NNE visible
4 Apr ? 22:17:52 27° NE 22:17:52 27° NE 22:20:37 10° NE visible
5 Apr ? 00:01:17 25° NW 00:01:36 25° NW 00:06:49 10° NNE visible
5 Apr ? 01:48:39 10° NNW 01:50:41 11° N 01:52:43 10° N visible
5 Apr ? 03:37:20 10° N 03:40:23 14° NNE 03:43:25 10° NE visible
5 Apr ? 22:25:39 42° NNE 22:25:39 42° NNE 22:29:49 10° NNE visible
6 Apr ? 00:09:03 17° WNW 00:11:14 20° NNW 00:15:50 10° NNE visible
6 Apr ? 01:59:06 10° NNW 02:00:35 11° N 02:02:03 10° N visible
6 Apr ? 03:46:22 10° NNW 03:50:10 16° NNE 03:53:56 10° ENE visible
6 Apr ? 20:49:38 21° ENE 20:49:38 21° ENE 20:51:57 10° NE visible
6 Apr ? 22:33:00 51° NW 22:33:00 51° NW 22:38:57 10° NNE visible
7 Apr ? 00:17:01 10° WNW 00:20:56 17° NNW 00:24:52 10° NNE visible
7 Apr ? 02:09:04 10° N 02:10:29 11° N 02:11:54 10° NNE visible
7 Apr ? 03:55:23 10° NNW 03:59:53 19° NNE 04:04:20 10° ENE visible
7 Apr ? 20:56:01 47° E 20:56:01 47° E 21:01:27 10° NE visible
7 Apr ? 22:39:15 25° W 22:42:09 38° NW 22:48:03 10° NNE visible
8 Apr ? 00:27:31 10° NW 00:30:42 14° NNW 00:33:54 10° NNE visible
8 Apr ? 02:18:29 10° N 02:20:23 11° N 02:22:18 10° NNE visible
8 Apr ? 04:04:25 10° NNW 04:09:31 24° NE 04:14:33 10° E visible
8 Apr ? 19:16:57 10° ESE 19:19:00 12° ESE 19:21:03 10° E visible
8 Apr ? 20:58:15 10° SSW 21:04:27 71° ESE 21:10:48 10° NE visible
8 Apr ? 22:46:13 10° W 22:51:37 29° NW 22:57:07 10° NNE visible
9 Apr ? 00:38:07 10° NW 00:40:32 12° NNW 00:42:58 10° N visible
9 Apr ? 02:27:37 10° N 02:30:15 13° NNE 02:32:53 10° NE visible
9 Apr ? 04:13:28 10° NNW 04:19:04 31° NE 04:24:35 10° ESE visible
9 Apr ? 19:23:42 10° SSE 19:27:49 19° ESE 19:31:58 10° ENE visible
9 Apr ? 21:07:21 10° SW 21:13:38 83° NW 21:20:02 10° NNE visible
9 Apr ? 22:56:18 10° W 23:01:12 23° NNW 23:06:09 10° NNE visible
10 Apr ? 00:48:41 10° NNW 00:50:25 11° N 00:52:09 10° N visible
10 Apr ? 02:36:40 10° NNW 02:40:04 15° NNE 02:43:28 10° NE visible
10 Apr ? 04:22:32 10° NNW 04:28:32 41° NE 04:34:24 10° ESE visible
10 Apr ? 19:31:34 10° SSE 19:36:41 28° ESE 19:41:55 10° NE visible
10 Apr ? 21:16:43 10° SW 21:22:53 60° NW 21:29:13 10° NNE visible
10 Apr ? 23:06:34 10° WNW 23:10:52 18° NNW 23:15:10 10° NNE visible
11 Apr ? 00:58:57 10° NNW 01:00:18 11° N 01:01:41 10° NNE visible
11 Apr ? 02:45:42 10° NNW 02:49:50 17° NNE 02:53:55 10° ENE visible
11 Apr ? 04:31:38 10° NNW 04:37:54 56° NE 04:44:02 10° SE visible
11 Apr ? 19:39:55 10° S 19:45:40 40° ESE 19:51:31 10° NE visible
11 Apr ? 21:26:16 10° WSW 21:32:14 44° NW 21:38:19 10° NNE visible
11 Apr ? 23:17:01 10° WNW 23:20:36 15° NNW 23:24:12 10° NNE visible
12 Apr ? 01:08:38 10° N 01:10:13 11° N 01:11:50 10° NNE visible
12 Apr ? 02:54:43 10° NNW 02:59:30 22° NNE 03:04:14 10° E visible
12 Apr ? 04:40:47 10° NNW 04:47:11 77° NE 04:53:25 10° SE visible
12 Apr ? 19:48:37 10° SSW 19:54:42 58° ESE 20:00:56 10° NE visible
12 Apr ? 21:36:03 10° WSW 21:41:40 33° NW 21:47:24 10° NNE visible
12 Apr ? 23:27:34 10° NW 23:30:24 13° NNW 23:33:14 10° N visible
13 Apr ? 01:17:53 10° N 01:20:06 12° NNE 01:22:20 10° NNE visible
13 Apr ? 03:03:45 10° NNW 03:09:05 27° NE 03:14:21 10° E visible
13 Apr ? 04:50:01 10° NW 04:56:22 77° WSW 05:02:35 10° SSE visible
13 Apr ? 19:57:35 10° SSW 20:03:50 83° ESE 20:10:14 10° NE visible
13 Apr ? 21:46:01 10° W 21:51:12 26° NW 21:56:27 10° NNE visible
13 Apr ? 23:38:10 10° NNW 23:40:15 12° N 23:42:20 10° N visible
